Location: Helsinki
(60.1699°N, 24.9384°E)
Time: 20:55:59
(UTC+02:00)

Transit 2A Rocket - Pass Details

Date: 24 September 2023
Orbit: 593 x 903 km, 66.7° (Epoch: 29 November)

Event Time Altitude Azimuth Distance (km) Brightness Sun altitude
Rises 16:12:01 0° 196° (SSW) 3,314 9.3 20.2°
Reaches altitude 10° 16:14:41 10° 189° (S) 2,336 8.4 19.9°
Maximum altitude 16:19:30 36° 124° (SE) 1,166 6.0 19.5°
Drops below altitude 10° 16:23:58 10° 59° (ENE) 2,159 6.8 19.0°
Sets 16:26:20 0° 51° (NE) 3,031 7.5 18.8°
